This demonstration page uses our WeatherBlox Daily Observations layout. Learn more.

39.92423, -83.80882

Hourly Observations for April 8, 2017

Temp ( °F °C ) Dew Point ( °F °C ) Humidity (%) Winds ( mph kmh ) Pressure ( in mb ) Visibility ( mi km ) Precip ( " mm )
12:56 am 00:56 Clear 37 2.8 28 -2.2 70 70 WNW 9 15 30.07 1018 10 16.0934 0 0
1:56 am 01:56 Clear 36 2.2 27 -2.8 70 70 WNW 7 11 30.07 1018 10 16.0934 0 0
2:56 am 02:56 Clear 34 1.1 28 -2.2 79 79 WNW 6 9 30.06 1018 10 16.0934 0 0
3:56 am 03:56 Clear 32 0 28 -2.2 85 85 W 8 13 30.07 1018 10 16.0934 0 0
4:56 am 04:56 Clear 31 -0.6 27 -2.8 85 85 W 8 13 30.07 1018 10 16.0934 0 0
5:56 am 05:56 Clear 32 0 26 -3.3 79 79 W 6 9 30.08 1019 10 16.0934 0 0
6:56 am 06:56 Clear 31 -0.6 26 -3.3 82 82 W 5 7 30.1 1019 10 16.0934 0 0
7:56 am 07:56 Sunny 33 0.6 29 -1.7 85 85 W 3 6 30.14 1021 10 16.0934 0 0
8:56 am 08:56 Sunny 38 3.3 26 -3.3 62 62 NW 6 9 30.16 1021 10 16.0934 0 0
9:56 am 09:56 Sunny 42 5.6 28 -2.2 58 58 WNW 5 7 30.16 1021 10 16.0934 0 0
10:56 am 10:56 Sunny 47 8.3 28 -2.2 48 48 WNW 3 6 30.16 1021 10 16.0934 0 0
11:56 am 11:56 Sunny 50 10 26 -3.3 39 39 Calm 30.16 1021 10 16.0934 0 0
12:56 pm 12:56 Sunny 52 11.1 27 -2.8 38 38 NW 3 6 30.14 1021 10 16.0934 0 0
1:56 pm 13:56 Sunny 55 12.8 26 -3.3 33 33 VRB 5 7 30.11 1020 10 16.0934 0 0
2:56 pm 14:56 Sunny 57 13.9 29 -1.7 34 34 S 8 13 30.1 1019 10 16.0934 0 0
3:56 pm 15:56 Sunny 58 14.4 29 -1.7 33 33 SW 8 13 30.08 1019 10 16.0934 0 0
4:56 pm 16:56 Sunny 59 15 29 -1.7 32 32 S 7 11 30.07 1018 10 16.0934 0 0
5:56 pm 17:56 Sunny 59 15 26 -3.3 28 28 WSW 9 15 30.06 1018 10 16.0934 0 0
6:56 pm 18:56 Sunny 58 14.4 26 -3.3 29 29 S 9 15 30.05 1018 10 16.0934 0 0
7:56 pm 19:56 Sunny 56 13.3 27 -2.8 33 33 SSW 5 7 30.05 1018 10 16.0934 0 0
8:56 pm 20:56 Clear 53 11.7 28 -2.2 38 38 SSE 6 9 30.03 1017 10 16.0934 0 0
9:56 pm 21:56 Clear 51 10.6 32 0 48 48 SSE 7 11 30.05 1018 10 16.0934 0 0
10:56 pm 22:56 Clear 50 10 32 0 50 50 S 7 11 30.05 1018 10 16.0934 0 0
11:56 pm 23:56 Clear 49 9.4 31 -0.6 50 50 S 5 7 30.05 1018 10 16.0934 0 0

Powered by AerisWeather